sat.trackr.live / text

‹ back to catalog

STARLINK-30903

NORAD 58355 · 2023-177E

PAYLOAD ACTIVE UNKNOWN

§ Identity

Operator
Country
US
Launch date
2023-11-18
Launch site
AFETR
Launch vehicle
Mass (kg)
RCS (m²)

Purposes: comms

External: N2YO · Heavens-Above · Gunter

§ Orbital elements

Epoch: 2026-05-25T02:03:42.421824Z

Period
94.27 min
Inclination
43.0054°
Eccentricity
0.0001865
Mean motion
15.27579919 rev/d
Perigee alt
481.8 km
Apogee alt
484.3 km
Semi-major
6,861.2 km
B*
-1.1147e-5
RAAN
278.9578°
Arg perigee
265.1293°
Mean anomaly
94.9346°
Rev number
13,991

§ Raw data

STARLINK-309031 58355U 23177E   26145.08590766 -.00000569  00000+0 -11147-4 0  99942 58355  43.0054 278.9578 0001865 265.1293  94.9346 15.27579919139911

JSON: /api/v1/satellites/58355 · /tle

For live sub-satellite position, see the globe view (requires WebGL).

§ Visibility from observer

Set your observer location to see the next 7 days of passes ≥ 10°. The values pass through the URL so the page stays shareable.

No JS? Fill the form by hand. The geolocation button needs JavaScript.